Weather History for Gunnison, CO

Change the Weather History Date:

Friday, January 27, 2012

  Actual Average Record
Temperature  
Mean Temperature 16 °F -  
Max Temperature 30 °F 23 °F 42 °F (2013)
Min Temperature 0 °F 0 °F -23 °F (2004)
Degree Days  
Heating Degree Days 48    
Moisture  
Dew Point 15 °F    
Average Humidity 76    
Maximum Humidity 100    
Minimum Humidity 43    
Precipitation  
Precipitation 0.05 in - - ()
Sea Level Pressure  
Sea Level Pressure 30.13 in    
Wind  
Wind Speed 5 mph (NW)    
Max Wind Speed 18 mph    
Max Gust Speed 26 mph    
Visibility 8 miles    
Events      
Averages and records for this station are not official NWS values.
T = Trace of Precipitation, MM = Missing Value Source: NWS Daily Summary

Daily Weather History Graph

Daily Weather History Graph

Search for Another Location

Airport:

Trip Planner

Search our weather history database for the weather conditions in past years. The results will help you decide how hot, cold, wet, or windy it might be!

Date:

Astronomy

Jan. 27, 2012 Rise Set
Actual Time 7:17 AM MST 5:23 PM MST
Civil Twilight 6:49 AM MST 5:51 PM MST
Nautical Twilight 6:17 AM MST 6:24 PM MST
Astronomical Twilight 5:45 AM MST 6:55 PM MST
Moon 9:17 AM MST (1/27) 10:12 PM MST (1/27)
Length of Visible Light 11h 02m
Length of Day
10h 06m
Waxing Crescent, 20% of the Moon is Illuminated
Jan 27
Waxing Crescent
Jan 30
First Quarter
Feb 7
Full
Feb 14
Last Quarter
Feb 21
New

Hourly Weather History & Observations

Time (MST) Temp. Windchill Dew Point Humidity Pressure Visibility Wind Dir Wind Speed Gust Speed Precip Events Conditions
12:15 AM 28.4 °F 23.3 °F 26.6 °F 93% 29.96 in 2.5 mi North 4.6 mph - N/A   Overcast
12:35 AM 28.4 °F - 26.6 °F 93% 29.95 in 2.0 mi Calm Calm - N/A   Overcast
12:55 AM 28.4 °F 22.2 °F 26.6 °F 93% 29.95 in 3.0 mi North 5.8 mph - N/A   Overcast
1:15 AM 28.4 °F 21.2 °F 26.6 °F 93% 29.96 in 1.2 mi North 6.9 mph - N/A   Overcast
1:35 AM 28.4 °F 23.3 °F 26.6 °F 93% 29.96 in 1.0 mi North 4.6 mph - 0.01 in   Overcast
1:55 AM 28.4 °F - 28.4 °F 100% 29.97 in 3.0 mi Calm Calm - 0.01 in   Overcast
2:15 AM 30.2 °F 19.3 °F 24.8 °F 80% 29.97 in 10.0 mi North 15.0 mph - 0.01 in   Overcast
2:35 AM 30.2 °F 21.9 °F 26.6 °F 86% 29.98 in 10.0 mi NNW 9.2 mph - 0.01 in   Overcast
2:55 AM 30.2 °F 22.6 °F 24.8 °F 80% 29.99 in 10.0 mi North 8.1 mph - 0.01 in   Overcast
3:15 AM 28.4 °F 22.2 °F 24.8 °F 86% 29.99 in 2.0 mi West 5.8 mph - N/A   Overcast
3:35 AM 28.4 °F 23.3 °F 24.8 °F 86% 29.99 in 2.0 mi WSW 4.6 mph - 0.01 in   Overcast
3:55 AM 28.4 °F 24.6 °F 26.6 °F 93% 29.99 in 2.0 mi SSW 3.5 mph - 0.02 in   Overcast
4:15 AM 28.4 °F 23.3 °F 24.8 °F 86% 29.99 in 8.0 mi South 4.6 mph - N/A   Overcast
4:35 AM 28.4 °F 20.4 °F 24.8 °F 86% 29.99 in 10.0 mi WSW 8.1 mph - 0.01 in   Overcast
4:55 AM 28.4 °F 24.6 °F 24.8 °F 86% 29.99 in 10.0 mi West 3.5 mph - 0.01 in   Overcast
5:15 AM 28.4 °F 21.2 °F 24.8 °F 86% 29.99 in 10.0 mi WSW 6.9 mph - N/A   Overcast
5:35 AM 28.4 °F 18.5 °F 23.0 °F 80% 29.98 in 10.0 mi WSW 11.5 mph - N/A   Overcast
5:55 AM 28.4 °F 15.8 °F 24.8 °F 86% 29.98 in 5.0 mi SW 18.4 mph 26.5 mph N/A   Mostly Cloudy
6:35 AM 28.4 °F 19.1 °F 24.8 °F 86% 30.00 in 2.0 mi WSW 10.4 mph 16.1 mph N/A   Overcast
6:55 AM 26.6 °F 19.1 °F 21.2 °F 80% 30.03 in 10.0 mi West 6.9 mph - N/A   Scattered Clouds
7:15 AM 26.6 °F 16.2 °F 21.2 °F 80% 30.04 in 9.0 mi WSW 11.5 mph 16.1 mph N/A   Mostly Cloudy
7:35 AM 26.6 °F 21.2 °F 24.8 °F 93% 30.05 in 8.0 mi North 4.6 mph - N/A   Mostly Cloudy
7:55 AM 26.6 °F - 23.0 °F 86% 30.06 in 7.0 mi Calm Calm - N/A   Mostly Cloudy
8:15 AM 26.6 °F - 21.2 °F 80% 30.07 in 9.0 mi Calm Calm - N/A   Overcast
8:35 AM 26.6 °F 20.0 °F 21.2 °F 80% 30.09 in 7.0 mi NNW 5.8 mph - N/A   Overcast
8:55 AM 26.6 °F - 19.4 °F 74% 30.10 in 10.0 mi Calm Calm - N/A   Overcast
9:15 AM 26.6 °F 22.6 °F 19.4 °F 74% 30.11 in 4.0 mi SSW 3.5 mph - N/A   Overcast
9:35 AM 28.4 °F 18.0 °F 17.6 °F 64% 30.12 in 10.0 mi SW 12.7 mph 18.4 mph N/A   Scattered Clouds
9:55 AM 28.4 °F 20.4 °F 19.4 °F 69% 30.14 in 10.0 mi WSW 8.1 mph 19.6 mph N/A   Scattered Clouds
10:15 AM 30.2 °F - 19.4 °F 64% 30.15 in 10.0 mi Calm Calm - N/A   Mostly Cloudy
5:15 PM 26.6 °F 20.0 °F 6.8 °F 43% 30.23 in 10.0 mi NNW 5.8 mph - N/A   Unknown
5:35 PM 24.8 °F - 6.8 °F 46% 30.24 in 10.0 mi Calm Calm - N/A   Clear
5:55 PM 21.2 °F 13.6 °F 6.8 °F 54% 30.25 in 10.0 mi NNW 5.8 mph - N/A   Clear
6:15 PM 19.4 °F 10.4 °F 6.8 °F 58% 30.25 in 10.0 mi North 6.9 mph - N/A   Clear
6:35 PM 17.6 °F 10.7 °F 5.0 °F 58% 30.27 in 10.0 mi NNW 4.6 mph - N/A   Clear
6:55 PM 17.6 °F 9.3 °F 3.2 °F 53% 30.28 in 10.0 mi NW 5.8 mph - N/A   Clear
7:15 PM 17.6 °F - 5.0 °F 58% 30.29 in 10.0 mi Calm Calm - N/A   Clear
7:35 PM 17.6 °F 10.7 °F 6.8 °F 63% 30.29 in 10.0 mi NNE 4.6 mph - N/A   Scattered Clouds
7:55 PM 15.8 °F 8.6 °F 3.2 °F 58% 30.29 in 10.0 mi North 4.6 mph - N/A   Partly Cloudy
8:15 PM 14.0 °F - 3.2 °F 62% 30.30 in 10.0 mi Calm Calm - N/A   Clear
8:35 PM 10.4 °F - 1.4 °F 67% 30.31 in 10.0 mi Calm Calm - N/A   Clear
8:55 PM 12.2 °F 6.1 °F 3.2 °F 67% 30.32 in 10.0 mi NNE 3.5 mph - N/A   Clear
9:15 PM 12.2 °F - -0.4 °F 57% 30.32 in 9.0 mi Calm Calm - N/A   Clear
9:35 PM 8.6 °F - 1.4 °F 73% 30.33 in 10.0 mi Calm Calm - N/A   Clear
9:55 PM 8.6 °F 0.1 °F 1.4 °F 73% 30.33 in 10.0 mi North 4.6 mph - N/A   Clear
10:15 PM 6.8 °F - -2.2 °F 67% 30.34 in 10.0 mi Calm Calm - N/A   Clear
10:35 PM 5.0 °F - -2.2 °F 72% 30.34 in 10.0 mi Calm Calm - N/A   Clear
10:55 PM 6.8 °F - 1.4 °F 79% 30.35 in 10.0 mi Calm Calm - N/A   Clear
11:15 PM 3.2 °F - -4.0 °F 72% 30.36 in 10.0 mi Calm Calm - N/A   Clear
11:55 PM -0.4 °F - -4.0 °F 85% 30.37 in 10.0 mi Calm Calm - N/A   Clear